sat.trackr.live / text

‹ back to catalog

STARLINK-35911

NORAD 68051 · 2026-041M

PAYLOAD ACTIVE UNKNOWN

§ Identity

Operator
Country
US
Launch date
2026-03-02
Launch site
AFETR
Launch vehicle
Mass (kg)
RCS (m²)

Purposes: comms

External: N2YO · Heavens-Above · Gunter

§ Orbital elements

Epoch: 2026-09-20T04:42:39.159648Z

Period
93.85 min
Inclination
53.1579°
Eccentricity
0.0001587
Mean motion
15.34409497 rev/d
Perigee alt
461.6 km
Apogee alt
463.8 km
Semi-major
6,840.8 km
B*
3.9182e-4
RAAN
223.1741°
Arg perigee
82.7669°
Mean anomaly
277.3514°
Rev number
3,121

§ Raw data

STARLINK-359111 68051U 26041M   26263.19628657  .00012889  00000+0  39182-3 0  99992 68051  53.1579 223.1741 0001587  82.7669 277.3514 15.34409497 31213

JSON: /api/v1/satellites/68051 · /tle

For live sub-satellite position, see the globe view (requires WebGL).

§ Visibility from observer

Set your observer location to see the next 7 days of passes ≥ 10°. The values pass through the URL so the page stays shareable.

No JS? Fill the form by hand. The geolocation button needs JavaScript.